• Em Portugal
  • Lista de países
  • Para 7 dias
  • Temperatura da água
  • Mapas de satélite
  • Mapa do tempo
  • Widgets de tempo
  • user-avatar
    Iniciar Sessão

    Previsão horária em Sololá

    Hoje, 19 Junho, Terça-feira

    Tempo Temperatura Precipitação Vento Pressão Humidade
    00:00 +14°C° 0 mm 1 m/s 596 mmHg 91%
    01:00 +13°C° 0,4 mm 1 m/s 595 mmHg 90%
    02:00 +13°C° 0,4 mm 1 m/s 595 mmHg 89%
    03:00 +13°C° 0,4 mm 1 m/s 594 mmHg 88%
    04:00 +13°C° 0,1 mm 1 m/s 595 mmHg 87%
    05:00 +13°C° 0,1 mm 1 m/s 595 mmHg 86%
    06:00 +13°C° 0,1 mm 1 m/s 595 mmHg 85%
    07:00 +16°C° 0,1 mm 1 m/s 596 mmHg 78%
    08:00 +19°C° 0,1 mm 1 m/s 597 mmHg 71%
    09:00 +19°C° 0,1 mm 0 m/s 598 mmHg 65%
    10:00 +21°C° 0,2 mm 1 m/s 598 mmHg 62%
    11:00 +22°C° 0,2 mm 1 m/s 598 mmHg 60%
    12:00 +23°C° 0,2 mm 2 m/s 598 mmHg 57%
    13:00 +23°C° 0,6 mm 2 m/s 598 mmHg 59%
    14:00 +23°C° 0,6 mm 2 m/s 597 mmHg 61%
    15:00 +23°C° 0,6 mm 2 m/s 597 mmHg 63%
    16:00 +20°C° 1,2 mm 2 m/s 596 mmHg 70%
    17:00 +20°C° 1,2 mm 1 m/s 595 mmHg 77%
    18:00 +18°C° 1,2 mm 1 m/s 595 mmHg 84%
    19:00 +16°C° 0,7 mm 1 m/s 595 mmHg 86%
    20:00 +15°C° 0,7 mm 1 m/s 595 mmHg 87%
    21:00 +13°C° 0,7 mm 0 m/s 595 mmHg 89%
    22:00 +13°C° 0,3 mm 0 m/s 595 mmHg 89%
    23:00 +14°C° 0,3 mm 1 m/s 595 mmHg 89%

    Amanhã, 20 Junho, Quarta-feira

    Tempo Temperatura Precipitação Vento Pressão Humidade
    00:00 +14°C° 0,3 mm 1 m/s 595 mmHg 89%
    01:00 +13°C° 0,2 mm 1 m/s 594 mmHg 89%
    02:00 +13°C° 0,2 mm 1 m/s 594 mmHg 89%
    03:00 +13°C° 0,2 mm 1 m/s 594 mmHg 89%
    04:00 +13°C° 0 mm 1 m/s 594 mmHg 89%
    05:00 +13°C° 0 mm 1 m/s 594 mmHg 89%
    06:00 +13°C° 0 mm 1 m/s 594 mmHg 89%
    07:00 +15°C° 0 mm 1 m/s 595 mmHg 82%
    08:00 +19°C° 0 mm 1 m/s 596 mmHg 74%
    09:00 +21°C° 0 mm 1 m/s 598 mmHg 67%
    10:00 +22°C° 0,1 mm 1 m/s 598 mmHg 65%
    11:00 +23°C° 0,1 mm 1 m/s 598 mmHg 62%
    12:00 +24°C° 0,1 mm 1 m/s 598 mmHg 60%
    13:00 +23°C° 0,4 mm 1 m/s 597 mmHg 63%
    14:00 +22°C° 0,4 mm 1 m/s 597 mmHg 65%
    15:00 +22°C° 0,4 mm 1 m/s 596 mmHg 68%
    16:00 +20°C° 0,6 mm 1 m/s 595 mmHg 74%
    17:00 +19°C° 0,6 mm 1 m/s 595 mmHg 80%
    18:00 +18°C° 0,6 mm 1 m/s 594 mmHg 85%
    19:00 +16°C° 0,2 mm 1 m/s 594 mmHg 87%
    20:00 +14°C° 0,2 mm 0 m/s 595 mmHg 89%
    21:00 +13°C° 0,2 mm 0 m/s 595 mmHg 90%
    22:00 +13°C° 0,3 mm 0 m/s 595 mmHg 90%
    23:00 +14°C° 0,3 mm 1 m/s 595 mmHg 90%

    Depois de amanhã, 21 Junho, Quinta-feira

    Tempo Temperatura Precipitação Vento Pressão Humidade
    00:00 +14°C° 0,3 mm 1 m/s 595 mmHg 90%
    01:00 +13°C° 0,1 mm 1 m/s 594 mmHg 90%
    02:00 +13°C° 0,1 mm 1 m/s 594 mmHg 89%
    03:00 +13°C° 0,1 mm 1 m/s 593 mmHg 89%
    04:00 +13°C° 0 mm 1 m/s 594 mmHg 88%
    05:00 +13°C° 0 mm 1 m/s 594 mmHg 87%
    06:00 +13°C° 0 mm 1 m/s 594 mmHg 87%
    07:00 +15°C° 0 mm 1 m/s 595 mmHg 80%
    08:00 +18°C° 0 mm 1 m/s 596 mmHg 74%
    09:00 +18°C° 0 mm 0 m/s 597 mmHg 68%
    10:00 +21°C° 0,2 mm 1 m/s 598 mmHg 64%
    11:00 +22°C° 0,2 mm 1 m/s 598 mmHg 61%
    12:00 +23°C° 0,2 mm 1 m/s 598 mmHg 58%
    13:00 +22°C° 0,9 mm 1 m/s 597 mmHg 62%
    14:00 +21°C° 0,9 mm 1 m/s 597 mmHg 65%
    15:00 +21°C° 0,9 mm 1 m/s 596 mmHg 69%
    16:00 +19°C° 1,2 mm 1 m/s 595 mmHg 75%
    17:00 +18°C° 1,2 mm 1 m/s 595 mmHg 81%
    18:00 +16°C° 1,2 mm 1 m/s 594 mmHg 88%
    19:00 +15°C° 1,4 mm 1 m/s 595 mmHg 89%
    20:00 +15°C° 1,4 mm 1 m/s 595 mmHg 90%
    21:00 +14°C° 1,4 mm 1 m/s 595 mmHg 91%
    22:00 +14°C° 0,6 mm 1 m/s 595 mmHg 90%
    23:00 +13°C° 0,6 mm 1 m/s 595 mmHg 89%

    22 Junho, Sexta-feira

    Tempo Temperatura Precipitação Vento Pressão Humidade
    00:00 +13°C° 0,6 mm 1 m/s 595 mmHg 88%
    01:00 +13°C° 0,7 mm 1 m/s 594 mmHg 88%
    02:00 +13°C° 0,7 mm 1 m/s 594 mmHg 88%
    03:00 +13°C° 0,7 mm 1 m/s 594 mmHg 87%
    04:00 +13°C° 0,4 mm 1 m/s 594 mmHg 86%
    05:00 +13°C° 0,4 mm 1 m/s 594 mmHg 86%
    06:00 +13°C° 0,4 mm 1 m/s 594 mmHg 85%
    07:00 +15°C° 0,2 mm 1 m/s 595 mmHg 80%
    08:00 +15°C° 0,2 mm 0 m/s 596 mmHg 76%
    09:00 +17°C° 0,2 mm 0 m/s 597 mmHg 72%
    10:00 +18°C° 0,1 mm 0 m/s 597 mmHg 68%
    11:00 +21°C° 0,1 mm 1 m/s 597 mmHg 64%
    12:00 +22°C° 0,1 mm 1 m/s 598 mmHg 61%
    13:00 +21°C° 0,7 mm 1 m/s 597 mmHg 64%
    14:00 +21°C° 0,7 mm 1 m/s 596 mmHg 68%
    15:00 +19°C° 0,7 mm 2 m/s 596 mmHg 72%
    16:00 +19°C° 1,5 mm 1 m/s 595 mmHg 77%
    17:00 +18°C° 1,5 mm 1 m/s 595 mmHg 83%
    18:00 +16°C° 1,5 mm 1 m/s 594 mmHg 89%
    19:00 +15°C° 0,7 mm 1 m/s 594 mmHg 89%
    20:00 +14°C° 0,7 mm 1 m/s 595 mmHg 90%
    21:00 +14°C° 0,7 mm 1 m/s 595 mmHg 91%
    22:00 +14°C° 0,8 mm 1 m/s 595 mmHg 91%
    23:00 +13°C° 0,8 mm 1 m/s 595 mmHg 91%

    23 Junho, Sábado

    Tempo Temperatura Precipitação Vento Pressão Humidade
    00:00 +13°C° 0,8 mm 1 m/s 595 mmHg 91%
    01:00 +13°C° 0,5 mm 1 m/s 594 mmHg 90%
    02:00 +13°C° 0,5 mm 1 m/s 594 mmHg 90%
    03:00 +13°C° 0,5 mm 1 m/s 594 mmHg 90%
    04:00 +13°C° 0,3 mm 1 m/s 594 mmHg 89%
    05:00 +13°C° 0,3 mm 1 m/s 594 mmHg 88%
    06:00 +13°C° 0,3 mm 1 m/s 594 mmHg 87%
    07:00 +15°C° 0,1 mm 1 m/s 595 mmHg 82%
    08:00 +16°C° 0,1 mm 0 m/s 596 mmHg 76%
    09:00 +18°C° 0,1 mm 0 m/s 597 mmHg 70%
    10:00 +20°C° 0,4 mm 1 m/s 597 mmHg 70%
    11:00 +21°C° 0,4 mm 1 m/s 597 mmHg 69%
    12:00 +21°C° 0,4 mm 1 m/s 597 mmHg 68%
    13:00 +21°C° 1,1 mm 1 m/s 596 mmHg 71%
    14:00 +20°C° 1,1 mm 1 m/s 596 mmHg 74%
    15:00 +20°C° 1,1 mm 1 m/s 595 mmHg 77%
    16:00 +19°C° 2 mm 1 m/s 594 mmHg 82%
    17:00 +18°C° 2 mm 1 m/s 594 mmHg 87%
    18:00 +16°C° 2 mm 1 m/s 594 mmHg 92%
    19:00 +15°C° 3,7 mm 1 m/s 594 mmHg 93%
    20:00 +14°C° 3,7 mm 0 m/s 594 mmHg 94%
    21:00 +14°C° 3,7 mm 0 m/s 595 mmHg 94%
    22:00 +14°C° 2,9 mm 1 m/s 595 mmHg 94%
    23:00 +14°C° 2,9 mm 1 m/s 595 mmHg 93%

    24 Junho, Domingo

    Tempo Temperatura Precipitação Vento Pressão Humidade
    00:00 +14°C° 2,9 mm 1 m/s 595 mmHg 93%
    01:00 +13°C° 0,5 mm 1 m/s 594 mmHg 92%
    02:00 +13°C° 0,5 mm 1 m/s 594 mmHg 91%
    03:00 +13°C° 0,5 mm 1 m/s 593 mmHg 90%
    04:00 +13°C° 0,1 mm 1 m/s 593 mmHg 89%
    05:00 +13°C° 0,1 mm 1 m/s 594 mmHg 88%
    06:00 +13°C° 0,1 mm 1 m/s 594 mmHg 87%
    07:00 +15°C° 0,1 mm 1 m/s 595 mmHg 82%
    08:00 +16°C° 0,1 mm 1 m/s 596 mmHg 77%
    09:00 +19°C° 0,1 mm 1 m/s 597 mmHg 71%
    10:00 +20°C° 0,4 mm 1 m/s 597 mmHg 70%
    11:00 +20°C° 0,4 mm 1 m/s 597 mmHg 68%
    12:00 +21°C° 0,4 mm 1 m/s 597 mmHg 67%
    13:00 +21°C° 1 mm 1 m/s 596 mmHg 69%
    14:00 +21°C° 1 mm 1 m/s 595 mmHg 72%
    15:00 +20°C° 1 mm 1 m/s 595 mmHg 74%
    16:00 +19°C° 1,3 mm 1 m/s 595 mmHg 79%
    17:00 +18°C° 1,3 mm 1 m/s 594 mmHg 84%
    18:00 +16°C° 1,3 mm 1 m/s 594 mmHg 88%
    19:00 +16°C° 1,6 mm 1 m/s 594 mmHg 90%
    20:00 +15°C° 1,6 mm 1 m/s 594 mmHg 92%
    21:00 +13°C° 1,6 mm 0 m/s 595 mmHg 93%
    22:00 +14°C° 1,3 mm 1 m/s 594 mmHg 93%
    23:00 +14°C° 1,3 mm 1 m/s 594 mmHg 93%
    Mostrar mais